Other Public Products
Issued by NWS Grand Forks, ND

Home | Current Version | Previous Version | Graphics & Text | Print | Product List | Glossary On
Versions: 1 2 3 4 5 6 7 8 9 10 11 12 13 14 15 16 17 18 19 20 21 22 23 24 25 26 27 28 29 30 31 32 33 34 35 36 37 38 39 40 41 42 43 44 45 46 47 48 49 50
605
FPUS83 KFGF 300231
OPUFGF
PRAIRIE TO PINES WEATHER ROUNDUP
NATIONAL WEATHER SERVICE EASTERN NORTH DAKOTA/GRAND FORKS ND
900 PM CDT THU SEP 29 2016

 **SATELLITE DATA USED TO AUGMENT SKY COVER AT AUTOMATED STATIONS**
 *****  WEATHER ACROSS EASTERN NORTH DAKOTA  *****

CITY           SKY/WX    TMP DP  RH WIND       PRES   REMARKS
GRAND FORKS    CLEAR     54  45  71 SE7       30.36S
GRAND FORKS AF CLEAR     52  45  76 SE8       30.36S
GRAND CITY NWS   N/A     54 N/A N/A SE9         N/A
BUXTON           N/A     62  57  84 SE6         N/A
DEVILS LAKE    CLEAR     58  48  69 SE13      30.33R
FARGO          CLEAR     56  45  66 E8        30.37S
WAHPETON ARPT  CLEAR     52  43  71 E6        30.38S
$$

 *****  WEATHER ACROSS CENTRAL AND WESTERN NORTH DAKOTA  *****

CITY           SKY/WX    TMP DP  RH WIND       PRES   REMARKS
JAMESTOWN      CLEAR     53  46  77 SE8       30.33R
BISMARCK       CLEAR     55  45  68 SE9       30.26R
MINOT          CLEAR     59  46  62 SE12      30.22S
MINOT AFB      CLEAR     57  46  67 SE10      30.21S
GARRISON         N/A     56  48  74 E8        30.22S
WILLISTON      CLEAR     65  44  46 SE9       30.13S
DICKINSON      CLEAR     60  41  49 SE17      30.15S
HETTINGER      CLEAR     61  42  49 SE15      30.19R
$$

 *****  OTHER OBSERVATIONS NORTHEAST NORTH DAKOTA  *****

CITY           SKY/WX    TMP DP  RH WIND       PRES   REMARKS
WALHALLA       FAIR      48  45  87 SE6       30.35S
LANGDON        FAIR      52  48  87 SE12      30.35R
CAVALIER       FAIR      55  48  76 SE6       30.36S
GRAFTON        FAIR      52  48  87 SE8       30.38S
CANDO          FAIR      52  50  93 SE9       30.34S
FORT TOTTEN      N/A     56  46  69 SE7       29.95
ROLLA          FAIR      52  46  82 S10G16    30.32S
RUGBY          FAIR      54  48  82 SE10      30.28F
 ***** THE ABOVE OBSERVATIONS ARE NON NWS ARE NOT QUALITY
        CONTROLLED AND MAY MIS-REPORT RAIN FOR SNOW...
$$

 *****  OTHER OBSERVATIONS SOUTHEAST NORTH DAKOTA *****

CITY           SKY/WX    TMP DP  RH WIND       PRES   REMARKS
COOPERSTOWN    FAIR      50  45  81 SE6       30.36S
VALLEY CITY    FAIR      54  46  76 SE7       30.37S
OAKES          NOT AVBL
GWINNER        FAIR      48  45  87 E8        30.36S
SHEYENNE NWR     N/A     47  42  83 SE6       29.95S
BUFFALO          N/A     50  42  71 SE9         N/A
WYNDMERE         N/A     52  46  82 E2          N/A
 ***** THE ABOVE OBSERVATIONS ARE NON NWS ARE NOT QUALITY
       CONTROLLED AND MAY MIS-REPORT RAIN FOR SNOW...
$$

  *****  WEATHER ACROSS NORTHERN MINNESOTA  *****

CITY           SKY/WX    TMP DP  RH WIND       PRES   REMARKS
FLAG ISLAND    CLEAR     57  48  72 SE12      30.41F
WARROAD        CLEAR     52  46  82 SE8       30.43S
ROSEAU         CLEAR     54  46  76 SE6       30.41F HAZE
HALLOCK        CLEAR     57  48  72 SE10      30.37S
THF RVR FALLS  CLEAR     53  46  77 SE10      30.41S
HALSTAD          N/A     50  45  81 SE8         N/A
FOSSTON        CLEAR     45  39  81 SE3       30.42S
BAUDETTE       CLOUDY    55  46  71 SE7       30.44F
WASKISH        CLOUDY    54  48  82 CALM      30.44S
CROOKSTON      CLEAR     54  46  76 SE10      30.39S
$$
  *****  WEATHER ACROSS CENTRAL AND WEST MINNESOTA  *****

CITY           SKY/WX    TMP DP  RH WIND       PRES   REMARKS
BEMIDJI        CLOUDY    54  49  84 E5        30.43S
PARK RAPIDS    MOCLDY    56  44  64 E5        30.42S
WADENA         CLEAR     48  45  87 E5        30.41S
DETROIT LAKES  CLEAR     52  45  76 SE5       30.41S
MOORHEAD       CLEAR     54  45  71 SE6       30.39S
FERGUS FALLS   CLEAR     54  46  76 E5        30.41S
ELBOW LAKE     FAIR      52  48  84 SE5       30.40S
MORRIS MN      CLEAR     48  45  87 E8        30.38S
STAPLES        CLEAR     48  45  87 CALM      30.42S
WHEATON        CLEAR     52  46  82 SE7       30.39S
$$
  *****  WEATHER ELSEWHERE ACROSS MINNESOTA  *****

CITY           SKY/WX    TMP DP  RH WIND       PRES   REMARKS
DULUTH         CLEAR     50  48  93 E8        30.46S
INTRNTL FALLS  CLOUDY    53  49  86 SE5       30.46S
ELY            PTCLDY    50  46  87 CALM      30.48S
CLOQUET        CLEAR     50  46  87 E5        30.45S
BRAINERD       CLEAR     47  47 100 E3        30.43R FOG
HIBBING        CLOUDY    51  48  89 E5        30.46R
ALEXANDRIA     CLEAR     51  47  86 E5        30.41S
SAINT CLOUD    CLEAR     50  49  96 CALM      30.40S
MINNEAPOLIS    CLEAR     59  50  72 N6        30.39S
$$

  *****  WEATHER ACROSS SOUTH DAKOTA  *****

CITY           SKY/WX    TMP DP  RH WIND       PRES   REMARKS
SIOUX FALLS    CLEAR     55  49  80 CALM      30.35R
BROOKINGS      CLEAR     57  48  72 E7        30.36R
WATERTOWN      CLEAR     56  46  69 E5        30.36R
HURON          CLEAR     58  46  64 SE7       30.33R
SISSETON         N/A     50  45  83 E5        30.36R
ABERDEEN       CLEAR     51  42  71 SE7       30.33S
MITCHELL       CLEAR     55  46  71 S5        30.34R
PIERRE         CLEAR     60  44  55 SE13      30.25R
MOBRIDGE       CLEAR     61  42  49 SE14      30.24R
RAPID CITY     PTCLDY    65  44  46 SE7       30.17S
$$

  *****  SOME WEATHER IN NEARBY STATES *****

CITY           SKY/WX    TMP DP  RH WIND       PRES   REMARKS
GLASGOW MT     CLEAR     66  49  54 SE9       30.00S
GREAT FALLS MT CLEAR     63  47  55 N10       30.04R
CHEYENNE WY    CLOUDY    65  38  36 E12       30.29S
SCOTTSBLUFF NE CLEAR     67  44  43 SE17      30.22R
OMAHA NE       CLEAR     61  46  57 E8        30.33R
DES MOINES IA  CLEAR     64  47  53 N7        30.31R
DAVENPORT IA   MOCLDY    63  53  70 NE7       30.26S
CHICAGO IL     LGT RAIN  63  57  81 NE15      30.22F
EAU CLAIRE WI  CLEAR     58  52  80 N7        30.39R
LA CROSSE WI   CLEAR     59  54  83 N7        30.34S
$$

  *****  SOME NATIONAL WEATHER *****

CITY           SKY/WX    TMP DP  RH WIND       PRES   REMARKS
LA GUARDIA NY  CLOUDY    64  53  67 E18G25    30.37S
RALEIGH NC     MOCLDY    73  70  90 E9        30.03S
ATLANTA GA     PTCLDY    65  46  50 NW9       30.06R
NEW ORLEANS LA CLEAR     78  55  44 N16G23    30.09R
OKLAHOMA CITY  PTCLDY    65  48  54 N7        30.28R
ALBUQUERQUE NM LGT RAIN  62  59  90 N12       30.43R
SALT LAKE CITY PTCLDY    67  52  58 SW7       30.16S
LOS ANGELES CA PTCLDY    74  57  55 SW10      29.99R
BOISE ID       PTCLDY    79  41  25 S15       29.96R
SEATTLE WA     CLOUDY    60  41  49 CALM      30.07F
$$

*** WEATHER ACROSS MANITOBA...SASKATCHEWAN AND ONTARIO ***
                ***ONTARIO***

CITY           SKY/WX    TMP DP  RH WIND       PRES   REMARKS
GERALDTON      CLEAR     48  46  93 E3        30.51S
THUNDER BAY    PTCLDY    46  46 100 W2        30.49R
SIOUX LOOKOUT  CLOUDY    52  45  76 S5        30.49F
TORONTO        CLOUDY    59  54  82 NE10      30.34S
BIG TROUT LK   CLOUDY    55  48  76 S3        30.43F
PICKLE LAKE    PTCLDY    48  45  87 S7        30.48F
DRYDEN         CLOUDY    52  46  82 SE3       30.47F
KENORA         PTCLDY    50  45  81 SE7       30.44
$$
                *** MANITOBA***

CITY           SKY/WX    TMP DP  RH WIND       PRES   REMARKS
BRANDON        PTCLDY    55  46  71 SE7       30.29R
DAUPHIN        CLEAR     54  46  76 VRB2      30.23S
ISLAND LAKE    MOCLDY    54  52  94 SE7       30.37F
PILOT MOUND      N/A     52  46  82 SE10        N/A
THE PAS        CLOUDY    54  52  94 SE8       30.22S
THOMPSON       PTCLDY    50  45  81 S2        30.29
WINNIPEG       CLEAR     52  46  82 S9        30.36F
LYNN LAKE      CLEAR     48  39  71 S6        30.25S
CHURCHILL      PTCLDY    50  37  62 SW12      30.21S
GILLAM         CLEAR     46  37  71 S5        30.33S
$$
                ***SASKATCHEWAN***

CITY           SKY/WX    TMP DP  RH WIND       PRES   REMARKS
ESTEVAN        PTCLDY    59  46  63 SE10      30.17S
KINDERSLEY     PTCLDY    50  46  87 NE9       30.08S
LLOYDMINSTER   MOCLDY    52  43  71 NE7       30.11F
PRINCE ALBERT  CLOUDY    54  48  82 E6        30.13F
REGINA         MOCLDY    63  46  55 SE20      30.10R
YORKTON        CLEAR     59  48  67 SE12G17   30.17R   C1F1C2F2C3F3C4F4C5F5C6F6C7F7C8F8C9F9CaFaCbFbCcFcCdFdCe!



USA.gov is the U.S. government's official web portal to all federal, state and local government web resources and services.